Regional Weather Roundup
Issued by NWS

Home | Current Version | Previous Version | Text Only | Print | Product List | Glossary Off
Versions: 1 2 3 4 5 6 7 8 9 10 11 12 13 14 15 16 17 18 19 20 21 22 23 24 25 26 27 28 29 30 31 32 33 34 35 36 37 38 39 40 41 42 43 44 45 46 47 48 49 50

000
ASUS45 KBOU 071110
RWRCO

WEATHER ROUNDUP FOR COLORADO
NATIONAL WEATHER SERVICE DENVER/BOULDER CO
500 AM MDT TUE JUL 07 2015

NOTE: "FAIR" INDICATES FEW OR NO CLOUDS BELOW 12000 FEET WITH NO
SIGNIFICANT WEATHER AND/OR OBSTRUCTIONS TO VISIBILITY.

COZ001>005-013-030-031-071200-
...NORTHWEST COLORADO...

CITY           SKY/WX    TMP DP  RH WIND       PRES   REMARKS
CRAIG          NOT AVBL
HAYDEN         CLOUDY    54  48  82 E13       30.21S
MEEKER         CLOUDY    58  53  84 CALM      30.19S
MOUNT WERNER   NOT AVBL
STEAMBOAT SPGS CLOUDY    52  51  96 CALM      30.23F
WALDEN         CLOUDY    50  46  87 SE3       30.31F
$$

COZ006>008-011-071200-
...WEST CENTRAL VALLEYS...

CITY           SKY/WX    TMP DP  RH WIND       PRES   REMARKS
GRAND JUNCTION MOCLDY    64  55  72 E3        30.08S
MONTROSE       MOCLDY    60  48  64 SE3       30.16S
EAGLE          MOCLDY    57  54  88 S3        30.25F
RIFLE          CLOUDY    62  55  77 CALM      30.14F
DELTA          MOCLDY    63  50  63 CALM      30.12S
NUCLA          MOCLDY    55  48  76 E5        30.20R
$$

COZ017>023-064>068-071200-
...SOUTHWEST COLORADO...

CITY           SKY/WX    TMP DP  RH WIND       PRES   REMARKS
DURANGO        MOCLDY    57  51  80 CALM      30.24R
CORTEZ         MOCLDY    54  49  83 NE3       30.18S
PAGOSA SPRINGS NOT AVBL
TELLURIDE      CLOUDY    55  45  68 CALM      30.37R
WOLF CREEK PAS NOT AVBL
$$

COZ009-010-012-014-032>034-037-058>063-071200-
...CENTRAL COLORADO...

CITY           SKY/WX    TMP DP  RH WIND       PRES   REMARKS
ASPEN          MOCLDY    53  47  79 S3        30.28F
BUENA VISTA    DRIZZLE   53  51  94 SE3       30.35S
COPPER MTN     MOCLDY    45  39  81 S12       30.54F
BERTHOUD PASS  HAZE      36  28  75 W16G24    30.58F VSB 1/4
COTTONWOOD PAS NOT AVBL
GUNNISON       PTCLDY    50  43  76 N9        30.32S
KREMMLING      CLOUDY    54  50  87 CALM      30.30F
LEADVILLE      CLOUDY    46  46 100 S7        30.42F
MONARCH PASS   FOG       41  39  93 E3        30.65S VSB<1/4
SALIDA         CLOUDY    55  53  92 E9        30.39F
SUNLIGHT       CLOUDY    48  46  93 CALM      30.48F
WILKERSON PASS FOG       41  41 100 SW7       30.54S VSB 1/4
$$

COZ069>075-071200-
...SAN LUIS VALLEY/SANGRE DE CRISTO MOUNTAINS...

CITY           SKY/WX    TMP DP  RH WIND       PRES   REMARKS
ALAMOSA        MOCLDY    54  52  93 CALM      30.31R
LA VETA PASS   DRZL/FOG  43  41  93 MISG      30.47R VSB 1/4
SAGUACHE       CLOUDY    54  52  94 CALM      30.33S
$$

COZ035-036-038>040-071200-
...NORTHERN COLORADO FRONT RANGE...

CITY           SKY/WX    TMP DP  RH WIND       PRES   REMARKS
DENVER INTL AP CLOUDY    59  51  75 SE10      30.22F HAZE
DMNS CITY PARK   N/A     60  52  75 SE13G18   30.21F
AURORA         CLOUDY    58  52  81 SE10      30.24F
FRONT RANGE AP NOT AVBL
ERIE MUNI ARPT CLOUDY    59  57  96 N5        30.21F FOG
BOULDER MUN AP CLOUDY    57  57 100 CALM      30.21F FOG
CENTENNIAL     CLOUDY    57  52  83 SE14      30.23F HAZE
BROOMFIELD     LGT RAIN  59  55  88 CALM      30.23F
FORT COLLINS   CLOUDY    59  55  88 CALM      30.23F
LONGMONT       CLOUDY    61  58  91 CALM      30.23F FOG
$$

COZ041-046-047-076>085-087-088-071200-
...PIKES PEAK/PALMER DIVIDE AND SOUTHERN FOOTHILLS...

CITY           SKY/WX    TMP DP  RH WIND       PRES   REMARKS
COLO. SPRINGS  DRIZZLE   54  52  93 S5        30.31F FOG
A. F. ACADEMY  CLOUDY    52  52 100 SE9       30.30F FOG
ELLICOTT       CLOUDY   N/A N/A N/A S3        30.29S FOG
FALCON         CLOUDY    51  51  98 S5        30.33F FOG
FORT CARSON    CLOUDY    55  55 100 SW5       30.28F FOG
LIMON          MOCLDY    50  49  96 CALM      30.27S FOG
MONUMENT HILL  CLOUDY    50  48  93 S12       30.31F FOG
TRINIDAD       CLOUDY    58  55  90 CALM      30.27R FOG
$$

COZ042>045-048>051-090-091-071200-
...NORTHEAST COLORADO...

CITY           SKY/WX    TMP DP  RH WIND       PRES   REMARKS
GREELEY ARPT   CLOUDY    61  52  72 SE12      30.22F
AKRON          CLOUDY    58  51  78 S8        30.24S
BURLINGTON     CLEAR     54  50  86 E3        30.22S FOG
WRAY           CLEAR     53  53  99 CALM      30.21F
STERLING       CLOUDY    59  54  82 S3          N/A
HOLYOKE        PTCLDY    55  52  88 CALM      30.22R FOG
FORT MORGAN    CLOUDY    58  50  73 SE7       30.23F
$$

COZ086-089-092>099-071200-
...SOUTHEAST COLORADO...

CITY           SKY/WX    TMP DP  RH WIND       PRES   REMARKS
PUEBLO         CLOUDY    62  54  74 SE8       30.23F HAZE
LA JUNTA       PTCLDY    59  52  77 E6        30.22R HAZE
LAMAR          CLEAR     55  51  86 E5        30.19S FOG
SPRINGFIELD      N/A     56  51  84 N6        30.21R
$$


USA.gov is the U.S. government's official web portal to all federal, state and local government web resources and services.